When you browse on this site, cookies collect data to enhance your experience and personalize the content and advertising you see.
Visit our Privacy Policy to learn more. By continuing to use the site, you agree to this use of cookies and data.

Hourly Weather Kamarang

Today, 11 July, Saturday

Time Temperature Precipitation Wind Pressure Humidity
00:00 +21°C° 4.5 mm 0 mps 713 mmHg 99%
01:00 +21°C° 4.5 mm 0 mps 713 mmHg 99%
02:00 +21°C° 4.5 mm 0 mps 712 mmHg 99%
03:00 +21°C° 1.4 mm 0 mps 712 mmHg 99%
04:00 +21°C° 1.4 mm 0 mps 712 mmHg 99%
05:00 +21°C° 1.4 mm 0 mps 712 mmHg 99%
06:00 +21°C° 0.3 mm 0 mps 712 mmHg 98%
07:00 +22°C° 0.3 mm 0 mps 713 mmHg 97%
08:00 +22°C° 0.3 mm 0 mps 713 mmHg 97%
09:00 +24°C° 0.8 mm 0 mps 713 mmHg 90%
10:00 +25°C° 0.8 mm 0 mps 713 mmHg 84%
11:00 +27°C° 0.8 mm 0 mps 713 mmHg 78%
12:00 +27°C° 1.7 mm 0 mps 713 mmHg 81%
13:00 +28°C° 1.7 mm 1 mps 712 mmHg 85%
14:00 +28°C° 1.7 mm 1 mps 711 mmHg 88%
15:00 +28°C° 1 mm 1 mps 711 mmHg 89%
16:00 +28°C° 1 mm 1 mps 711 mmHg 89%
17:00 +27°C° 1 mm 1 mps 710 mmHg 90%
18:00 +24°C° 1.4 mm 0 mps 711 mmHg 93%
19:00 +23°C° 1.4 mm 0 mps 711 mmHg 95%
20:00 +21°C° 1.4 mm 0 mps 712 mmHg 98%
21:00 +21°C° 0.5 mm 0 mps 712 mmHg 98%
22:00 +21°C° 0.5 mm 0 mps 712 mmHg 98%
23:00 +21°C° 0.5 mm 0 mps 713 mmHg 99%

Tomorrow, 12 July, Sunday

Time Temperature Precipitation Wind Pressure Humidity
00:00 +20°C° 0.2 mm 0 mps 712 mmHg 99%
01:00 +20°C° 0.2 mm 0 mps 712 mmHg 99%
02:00 +20°C° 0.2 mm 0 mps 712 mmHg 99%
03:00 +20°C° 0.1 mm 0 mps 712 mmHg 99%
04:00 +20°C° 0.1 mm 0 mps 712 mmHg 99%
05:00 +20°C° 0.1 mm 0 mps 712 mmHg 99%
06:00 +21°C° 0 mm 0 mps 712 mmHg 98%
07:00 +21°C° 0 mm 0 mps 713 mmHg 96%
08:00 +22°C° 0 mm 0 mps 713 mmHg 95%
09:00 +23°C° 0.9 mm 0 mps 713 mmHg 94%
10:00 +23°C° 0.9 mm 0 mps 713 mmHg 94%
11:00 +26°C° 0.9 mm 1 mps 713 mmHg 93%
12:00 +26°C° 1.5 mm 1 mps 713 mmHg 91%
13:00 +27°C° 1.5 mm 1 mps 712 mmHg 88%
14:00 +27°C° 1.5 mm 1 mps 712 mmHg 85%
15:00 +27°C° 1.1 mm 1 mps 711 mmHg 88%
16:00 +26°C° 1.1 mm 1 mps 711 mmHg 91%
17:00 +26°C° 1.1 mm 1 mps 711 mmHg 93%
18:00 +25°C° 0.3 mm 1 mps 711 mmHg 95%
19:00 +22°C° 0.3 mm 0 mps 712 mmHg 97%
20:00 +21°C° 0.3 mm 0 mps 712 mmHg 98%
21:00 +20°C° 0 mm 0 mps 713 mmHg 98%
22:00 +20°C° 0 mm 0 mps 713 mmHg 98%
23:00 +20°C° 0 mm 0 mps 713 mmHg 98%

Day after tomorrow, 13 July, Monday

Time Temperature Precipitation Wind Pressure Humidity
00:00 +20°C° 0.1 mm 0 mps 713 mmHg 99%
01:00 +20°C° 0.1 mm 0 mps 712 mmHg 99%
02:00 +20°C° 0.1 mm 0 mps 712 mmHg 99%
03:00 +20°C° 0 mm 0 mps 712 mmHg 99%
04:00 +20°C° 0 mm 0 mps 712 mmHg 99%
05:00 +20°C° 0 mm 0 mps 712 mmHg 99%
06:00 +20°C° 0 mm 0 mps 713 mmHg 98%
07:00 +21°C° 0 mm 0 mps 713 mmHg 97%
08:00 +21°C° 0 mm 0 mps 714 mmHg 97%
09:00 +23°C° 0.1 mm 0 mps 714 mmHg 86%
10:00 +25°C° 0.1 mm 0 mps 714 mmHg 76%
11:00 +29°C° 0.1 mm 1 mps 714 mmHg 65%
12:00 +30°C° 0.1 mm 1 mps 714 mmHg 62%
13:00 +30°C° 0.1 mm 1 mps 713 mmHg 59%
14:00 +31°C° 0.1 mm 2 mps 712 mmHg 56%
15:00 +30°C° 0.6 mm 1 mps 712 mmHg 67%
16:00 +28°C° 0.6 mm 1 mps 712 mmHg 77%
17:00 +27°C° 0.6 mm 1 mps 712 mmHg 88%
18:00 +26°C° 0.3 mm 1 mps 712 mmHg 91%
19:00 +24°C° 0.3 mm 1 mps 712 mmHg 95%
20:00 +21°C° 0.3 mm 0 mps 713 mmHg 99%
21:00 +21°C° 0.1 mm 0 mps 713 mmHg 99%
22:00 +20°C° 0.1 mm 0 mps 713 mmHg 99%
23:00 +20°C° 0.1 mm 0 mps 714 mmHg 99%

14 July, Tuesday

Time Temperature Precipitation Wind Pressure Humidity
00:00 +20°C° 0 mm 0 mps 713 mmHg 99%
01:00 +20°C° 0 mm 0 mps 713 mmHg 99%
02:00 +20°C° 0 mm 0 mps 712 mmHg 99%
03:00 +20°C° 0 mm 0 mps 712 mmHg 99%
04:00 +20°C° 0 mm 0 mps 712 mmHg 99%
05:00 +20°C° 0 mm 0 mps 712 mmHg 99%
06:00 +20°C° 0 mm 0 mps 713 mmHg 98%
07:00 +21°C° 0 mm 0 mps 713 mmHg 96%
08:00 +22°C° 0 mm 0 mps 714 mmHg 95%
09:00 +24°C° 0 mm 0 mps 714 mmHg 85%
10:00 +26°C° 0 mm 0 mps 714 mmHg 74%
11:00 +28°C° 0 mm 0 mps 714 mmHg 63%
12:00 +28°C° 0.2 mm 0 mps 714 mmHg 60%
13:00 +31°C° 0.2 mm 1 mps 713 mmHg 56%
14:00 +31°C° 0.2 mm 1 mps 712 mmHg 53%
15:00 +30°C° 0.4 mm 1 mps 712 mmHg 63%
16:00 +28°C° 0.4 mm 1 mps 712 mmHg 74%
17:00 +27°C° 0.4 mm 1 mps 711 mmHg 84%
18:00 +25°C° 0.5 mm 1 mps 712 mmHg 89%
19:00 +24°C° 0.5 mm 1 mps 712 mmHg 93%
20:00 +20°C° 0.5 mm 0 mps 713 mmHg 98%
21:00 +20°C° 0.3 mm 0 mps 713 mmHg 98%
22:00 +20°C° 0.3 mm 0 mps 713 mmHg 98%
23:00 +20°C° 0.3 mm 0 mps 714 mmHg 98%

15 July, Wednesday

Time Temperature Precipitation Wind Pressure Humidity
00:00 +20°C° 0.2 mm 0 mps 713 mmHg 98%
01:00 +20°C° 0.2 mm 0 mps 713 mmHg 98%
02:00 +20°C° 0.2 mm 0 mps 712 mmHg 99%
03:00 +20°C° 0.1 mm 0 mps 712 mmHg 99%
04:00 +20°C° 0.1 mm 0 mps 712 mmHg 99%
05:00 +19°C° 0.1 mm 0 mps 712 mmHg 99%
06:00 +20°C° 0.1 mm 0 mps 713 mmHg 97%
07:00 +21°C° 0.1 mm 0 mps 713 mmHg 95%
08:00 +22°C° 0.1 mm 0 mps 714 mmHg 93%
09:00 +24°C° 0.1 mm 0 mps 714 mmHg 83%
10:00 +26°C° 0.1 mm 0 mps 714 mmHg 72%
11:00 +29°C° 0.1 mm 1 mps 714 mmHg 62%
12:00 +30°C° 0.2 mm 1 mps 713 mmHg 61%
13:00 +30°C° 0.2 mm 1 mps 713 mmHg 60%
14:00 +31°C° 0.2 mm 1 mps 712 mmHg 59%
15:00 +30°C° 0.7 mm 1 mps 711 mmHg 69%
16:00 +28°C° 0.7 mm 1 mps 711 mmHg 79%
17:00 +27°C° 0.7 mm 1 mps 711 mmHg 89%
18:00 +26°C° 1.2 mm 1 mps 711 mmHg 92%
19:00 +24°C° 1.2 mm 1 mps 712 mmHg 95%
20:00 +23°C° 1.2 mm 1 mps 712 mmHg 98%
21:00 +20°C° 0.6 mm 0 mps 713 mmHg 98%
22:00 +20°C° 0.6 mm 0 mps 713 mmHg 98%
23:00 +20°C° 0.6 mm 0 mps 713 mmHg 99%

16 July, Thursday

Time Temperature Precipitation Wind Pressure Humidity
00:00 +20°C° 0 mm 0 mps 713 mmHg 99%
01:00 +20°C° 0 mm 0 mps 713 mmHg 99%
02:00 +19°C° 0 mm 0 mps 712 mmHg 99%
03:00 +19°C° 0 mm 0 mps 712 mmHg 99%
04:00 +19°C° 0 mm 0 mps 712 mmHg 99%
05:00 +19°C° 0 mm 0 mps 712 mmHg 99%
06:00 +20°C° 0 mm 0 mps 713 mmHg 97%
07:00 +21°C° 0 mm 0 mps 713 mmHg 96%
08:00 +22°C° 0 mm 0 mps 714 mmHg 94%
09:00 +24°C° 0 mm 0 mps 714 mmHg 84%
10:00 +25°C° 0 mm 0 mps 714 mmHg 74%
11:00 +27°C° 0 mm 0 mps 714 mmHg 64%
12:00 +30°C° 0.3 mm 1 mps 714 mmHg 64%
13:00 +30°C° 0.3 mm 1 mps 713 mmHg 64%
14:00 +30°C° 0.3 mm 1 mps 712 mmHg 64%
15:00 +29°C° 1.2 mm 1 mps 712 mmHg 72%
16:00 +29°C° 1.2 mm 1 mps 712 mmHg 79%
17:00 +28°C° 1.2 mm 1 mps 711 mmHg 87%
18:00 +24°C° 1.9 mm 0 mps 712 mmHg 90%
19:00 +23°C° 1.9 mm 0 mps 712 mmHg 94%
20:00 +21°C° 1.9 mm 0 mps 713 mmHg 98%
21:00 +21°C° 2.3 mm 0 mps 713 mmHg 98%
22:00 +21°C° 2.3 mm 0 mps 713 mmHg 98%
23:00 +21°C° 2.3 mm 0 mps 714 mmHg 99%
Show more